Regional Weather Roundup
Issued by NWS

Home | Current Version | Previous Version | Graphics & Text | Print | Product List | Glossary On
Versions: 1 2 3 4 5 6 7 8 9 10 11 12 13 14 15 16 17 18 19 20 21 22 23 24 25 26 27 28 29 30 31 32 33 34 35 36 37 38 39 40 41 42 43 44 45 46 47 48 49 50
000
ASUS43 KMKX 101800
RWRWI

WISCONSIN REGIONAL WEATHER ROUNDUP
NATIONAL WEATHER SERVICE MILWAUKEE/SULLIVAN WI
100 PM CDT THU JUL 10 2014

NOTE: "FAIR" INDICATES FEW OR NO CLOUDS BELOW 12,000 FEET WITH NO
SIGNIFICANT WEATHER AND/OR OBSTRUCTIONS TO VISIBILITY.

WIZ001-002-006>008-014>016-023>028-101900-
NORTHWEST WISCONSIN

CITY           SKY/WX    TMP DP  RH WIND       PRES   REMARKS
SUPERIOR ARPT  MOSUNNY   69  58  68 NE7       30.05S
ASHLAND        PTSUNNY   77  57  50 S8        30.08S
6HR MIN TEMP:  53; 6HR MAX TEMP:  77;

HAYWARD        MOSUNNY   77  53  43 S9        30.09S
6HR MIN TEMP:  57; 6HR MAX TEMP:  77;

SIREN          SUNNY     78  55  44 SW9       30.07S
RICE LAKE      PTSUNNY   76  59  54 SE10      30.10S
LADYSMITH      MOSUNNY   76  58  53 S10       30.13R
EAU CLAIRE     NOT AVBL
MENOMONIE      CLEAR     79  59  50 S5        30.08S HX  80
NEW RICHMOND   SUNNY     78  58  50 S6        30.07S
OSCEOLA        SUNNY     79  58  48 S12       30.08F HX  80
$$

WIZ003>005-009-010-017-018-101900-
NORTH CENTRAL WISCONSIN

CITY           SKY/WX    TMP DP  RH WIND       PRES   REMARKS
WOODRUFF       PTSUNNY   74  55  50 S5        30.13F
RHINELANDER    MOSUNNY   72  52  49 S9        30.15F
6HR MIN TEMP:  50; 6HR MAX TEMP:  72;

EAGLE RIVER    PTSUNNY   71  51  48 SW7       30.14F
LAND O LAKES   MOSUNNY   72  50  45 SW7       30.15S
PHILLIPS       PTSUNNY   73  54  51 S10       30.12S
TOMAHAWK       MOSUNNY   73  54  51 CALM      30.14F
MEDFORD        MOSUNNY   72  57  59 S12       30.13F
MERRILL        MOSUNNY   74  56  53 S9        30.14F
$$

WIZ029-030-035-036-043>047-101900-
CENTRAL WISCONSIN

CITY           SKY/WX    TMP DP  RH WIND       PRES   REMARKS
WAUSAU         MOSUNNY   75  53  46 S7        30.12F
6HR MIN TEMP:  53; 6HR MAX TEMP:  76;

MOSINEE        MOSUNNY   73  55  53 S7        30.14F
MARSHFIELD     MOSUNNY   75  59  57 S10       30.13S
6HR MIN TEMP:  57; 6HR MAX TEMP:  76;

STEVENS POINT  MOSUNNY   74  53  48 S13       30.14F
WAUPACA        MOSUNNY   78  54  42 S7        30.16S
WAUTOMA        NOT AVBL
WISC RAPIDS    MOSUNNY   77  55  46 S9G16     30.14F
6HR MIN TEMP:  57; 6HR MAX TEMP:  78;

CAMP DOUGLAS   NOT AVBL
$$

WIZ011>013-019>022-031-037>040-048>050-101900-
NORTHEAST WISCONSIN

CITY           SKY/WX    TMP DP  RH WIND       PRES   REMARKS
ANTIGO         PTSUNNY   70  57  63 S7        30.16F
STURGEON BAY   SUNNY     66  54  63 SE12G17   30.19S
6HR MIN TEMP:  57; 6HR MAX TEMP:  66;

GREEN BAY      SUNNY     75  53  46 SW7       30.17S
6HR MIN TEMP:  57; 6HR MAX TEMP:  75;

MANITOWOC      NOT AVBL
APPLETON       MOSUNNY   72  52  49 S8        30.17F
CLINTONVILLE   MOSUNNY   73  52  46 S7        30.15F
OSHKOSH        MOSUNNY   75  55  49 VRB5      30.16F
6HR MIN TEMP:  58; 6HR MAX TEMP:  76;

$$

WIZ032>034-041-042-053>061-101900-
SOUTHWEST WISCONSIN

CITY           SKY/WX    TMP DP  RH WIND       PRES   REMARKS
LA CROSSE      MOSUNNY   80  63  55 S9        30.09S HX  81
6HR MIN TEMP:  62; 6HR MAX TEMP:  81;

SPARTA         MOSUNNY   78  59  52 SW6       30.11F
VIROQUA        FAIR      76  62  61 SW8       30.14S
BOSCOBEL       PTSUNNY   80  60  50 VRB6      30.13S HX  81
6HR MIN TEMP:  59; 6HR MAX TEMP:  81;

PRAIRIE DU CHI MOSUNNY   78  59  51 S6        30.12S
PLATTEVILLE    PTSUNNY   76  61  58 S8        30.16F
$$

WIZ056-057-062-063-064-067-068-101900-
SOUTH CENTRAL WISCONSIN

CITY           SKY/WX    TMP DP  RH WIND       PRES   REMARKS
BARABOO/DELLS  MOSUNNY   76  55  47 S8        30.14F
LONE ROCK      NOT AVBL
WATERTOWN      SUNNY     75  55  48 SW5       30.17F
MADISON        MOSUNNY   78  55  44 S14       30.15F
6HR MIN TEMP:  59; 6HR MAX TEMP:  78;

MIDDLETON      FAIR      77  53  43 S7        30.16F
MONROE         SUNNY     75  55  50 S9        30.17F
JANESVILLE     MOSUNNY   79  54  41 S7        30.16F
$$

WIZ051-052-058>065-066-070>072-101900-
SOUTHEAST WISCONSIN

CITY           SKY/WX    TMP DP  RH WIND       PRES   REMARKS
MILWAUKEE      MOSUNNY   69  57  65 SE14      30.19F
6HR MIN TEMP:  62; 6HR MAX TEMP:  70;

WAUKESHA       PTSUNNY   73  54  49 SE3       30.19F
MILWAUKEE/TIMM SUNNY     72  54  53 E9        30.19F
RACINE         SUNNY     70  57  63 SE10      30.22S
6HR MIN TEMP:  61; 6HR MAX TEMP:  70;

BURLINGTON     MOSUNNY   73  53  48 CALM      30.18F
KENOSHA        SUNNY     71  58  63 SE10      30.20S
6HR MIN TEMP:  59; 6HR MAX TEMP:  72;

FOND DU LAC    SUNNY     76  54  46 VRB6      30.17S
6HR MIN TEMP:  57; 6HR MAX TEMP:  76;

SHEBOYGAN      SUNNY     70  57  63 SE10      30.19F
6HR MIN TEMP:  55; 6HR MAX TEMP:  72;

WEST BEND      PTSUNNY   73  50  43 CALM      30.18F
JUNEAU         MOSUNNY   74  37  26 CALM      30.19S
$$

LSZ147-162-101900-
LAKE SUPERIOR

STATION/POSITION TIME  TEMP    WIND        PRES    WAVE
                       AIR SEA DIR/SP/G            HT/PER
                 (UTC) (F)     (DEG/KT/KT) (MB)    (FT/S)
W MID LAKE BUOY  1650   45 39  110/  4/  6 1019.6F   0
PORT WING        1700   61      30/ 12/ 13 1018.3S
SAXON HARBOR     1700           CALM  /  5 1019.0R
$$

LMZ867-665-643>646-101900-
LAKE MICHIGAN

STATION/POSITION TIME  TEMP    WIND        PRES    WAVE
                       AIR SEA DIR/SP/G            HT/PER
                 (UTC) (F)     (DEG/KT/KT) (MB)    (FT/S)
N MID LAKE BUOY  1650   56 55  190/  6/  8 1022.3R   0
NORTHPORT PIER   1700   62     150/ 10/ 16 1022.0S
KEWAUNEE LAKESHO 1700   54     160/  6/  7 1023.3R
SHEBOYGAN LAKESH 1700   59     150/  8/  9 1023.1R
PORT WASHINGTON  1700   63      60/  3/  4 1023.4S
MILWAUKEE LAKESH 1700   61     120/  8/  9   N/A
S MID LAKE BUOY  1650   60 58  140/  4/  4 1023.3R   0
KENOSHA   LAKESH 1700   63     140/ 10/ 10   N/A
$$

TC  - TEMPERATURE IN CELSIUS
VSB - VISIBILITY IN STATUTE MILES
WCI - WIND CHILL INDEX
HX  - HEAT INDEX




USA.gov is the U.S. government's official web portal to all federal, state and local government web resources and services.